Вернуться в каталог

MOLNIYA 1-40

АктивенСвязьHEO
NORAD 10925·PAYLOAD·🇷🇺 Russia

Запущен Jun 2, 1978 с Plesetsk Cosmodrome

Loading…

Ближайшие Пролёты (ближайшие 24 часа)

TLE

СвежийSource: Space-Track

Эпоха: Sep 13, 2026, 21:47 UTC

1 10925U 78055A   26256.90774062 -.00000214  00000-0  00000-0 0  9996
2 10925  64.0176 213.0340 6710576 273.6495  17.8984  2.00690678353763

Отслеживайте MOLNIYA 1-40 в реальном времени с AllMySat

Download on the App Store